When you browse on this site, cookies collect data to enhance your experience and personalize the content and advertising you see.
Visit our Privacy Policy to learn more. By continuing to use the site, you agree to this use of cookies and data.
  • In Denmark
  • List of Countries
  • For 7 days
  • Water Temperature
  • Satellite Maps
  • Weather Map
  • Weather Widgets
  • user-avatar
    Login

    Hourly Weather Corfu

    Today, 16 January, Wednesday

    Time Temperature Precipitation Wind Pressure Humidity
    00:00 +3°C° 0 mm 4 mps 765 mmHg 48%
    01:00 +3°C° 0 mm 3 mps 766 mmHg 49%
    02:00 +3°C° 0 mm 3 mps 766 mmHg 49%
    03:00 +3°C° 0 mm 3 mps 766 mmHg 49%
    04:00 +2°C° 0 mm 3 mps 766 mmHg 49%
    05:00 +4°C° 0 mm 2 mps 767 mmHg 48%
    06:00 +4°C° 0 mm 2 mps 767 mmHg 48%
    07:00 +4°C° 0 mm 2 mps 767 mmHg 48%
    08:00 +5°C° 0 mm 2 mps 767 mmHg 44%
    09:00 +7°C° 0 mm 2 mps 767 mmHg 40%
    10:00 +8°C° 0 mm 2 mps 768 mmHg 36%
    11:00 +9°C° 0 mm 3 mps 767 mmHg 37%
    12:00 +10°C° 0 mm 3 mps 767 mmHg 37%
    13:00 +10°C° 0 mm 4 mps 767 mmHg 38%
    14:00 +10°C° 0 mm 4 mps 767 mmHg 42%
    15:00 +8°C° 0 mm 4 mps 767 mmHg 47%
    16:00 +8°C° 0 mm 4 mps 767 mmHg 52%
    17:00 +8°C° 0 mm 3 mps 767 mmHg 54%
    18:00 +8°C° 0 mm 3 mps 767 mmHg 57%
    19:00 +7°C° 0 mm 3 mps 768 mmHg 59%
    20:00 +7°C° 0 mm 2 mps 768 mmHg 60%
    21:00 +6°C° 0 mm 2 mps 768 mmHg 61%
    22:00 +6°C° 0 mm 2 mps 768 mmHg 63%
    23:00 +6°C° 0 mm 2 mps 768 mmHg 64%

    Tomorrow, 17 January, Thursday

    Time Temperature Precipitation Wind Pressure Humidity
    00:00 +6°C° 0 mm 2 mps 768 mmHg 65%
    01:00 +6°C° 0 mm 2 mps 768 mmHg 66%
    02:00 +6°C° 0 mm 2 mps 767 mmHg 66%
    03:00 +5°C° 0 mm 3 mps 767 mmHg 66%
    04:00 +5°C° 0 mm 3 mps 767 mmHg 67%
    05:00 +5°C° 0 mm 4 mps 767 mmHg 66%
    06:00 +5°C° 0 mm 4 mps 767 mmHg 64%
    07:00 +5°C° 0 mm 4 mps 767 mmHg 63%
    08:00 +7°C° 0 mm 4 mps 767 mmHg 62%
    09:00 +8°C° 0 mm 4 mps 767 mmHg 60%
    10:00 +11°C° 0 mm 4 mps 767 mmHg 58%
    11:00 +11°C° 0 mm 4 mps 766 mmHg 62%
    12:00 +11°C° 0 mm 4 mps 766 mmHg 67%
    13:00 +12°C° 0 mm 4 mps 765 mmHg 71%
    14:00 +12°C° 0 mm 4 mps 765 mmHg 75%
    15:00 +11°C° 0 mm 4 mps 765 mmHg 79%
    16:00 +11°C° 0 mm 4 mps 765 mmHg 82%
    17:00 +11°C° 0.1 mm 4 mps 765 mmHg 83%
    18:00 +10°C° 0.1 mm 4 mps 765 mmHg 84%
    19:00 +10°C° 0.1 mm 4 mps 765 mmHg 85%
    20:00 +10°C° 0.1 mm 4 mps 765 mmHg 85%
    21:00 +10°C° 0.1 mm 4 mps 765 mmHg 85%
    22:00 +10°C° 0.1 mm 4 mps 765 mmHg 85%
    23:00 +10°C° 0.1 mm 4 mps 765 mmHg 85%

    Day after tomorrow, 18 January, Friday

    Time Temperature Precipitation Wind Pressure Humidity
    00:00 +10°C° 0.1 mm 4 mps 765 mmHg 85%
    01:00 +10°C° 0.1 mm 4 mps 765 mmHg 85%
    02:00 +10°C° 0.4 mm 4 mps 764 mmHg 86%
    03:00 +9°C° 0.4 mm 5 mps 764 mmHg 86%
    04:00 +9°C° 0.4 mm 5 mps 764 mmHg 87%
    05:00 +9°C° 1.3 mm 5 mps 764 mmHg 88%
    06:00 +9°C° 1.3 mm 6 mps 764 mmHg 89%
    07:00 +9°C° 1.3 mm 6 mps 764 mmHg 90%
    08:00 +9°C° 1.4 mm 6 mps 764 mmHg 90%
    09:00 +9°C° 1.4 mm 6 mps 764 mmHg 90%
    10:00 +9°C° 1.4 mm 6 mps 764 mmHg 90%
    11:00 +9°C° 1.1 mm 6 mps 764 mmHg 90%
    12:00 +10°C° 1.1 mm 6 mps 764 mmHg 90%
    13:00 +10°C° 1.1 mm 5 mps 764 mmHg 90%
    14:00 +10°C° 1 mm 5 mps 763 mmHg 90%
    15:00 +10°C° 1 mm 5 mps 763 mmHg 91%
    16:00 +10°C° 1 mm 5 mps 763 mmHg 91%
    17:00 +10°C° 0.5 mm 5 mps 763 mmHg 90%
    18:00 +10°C° 0.5 mm 5 mps 764 mmHg 89%
    19:00 +10°C° 0.5 mm 5 mps 764 mmHg 88%
    20:00 +10°C° 0.2 mm 5 mps 764 mmHg 87%
    21:00 +10°C° 0.2 mm 5 mps 764 mmHg 86%
    22:00 +10°C° 0.2 mm 5 mps 764 mmHg 85%
    23:00 +9°C° 0 mm 5 mps 764 mmHg 84%

    19 January, Saturday

    Time Temperature Precipitation Wind Pressure Humidity
    00:00 +9°C° 0 mm 5 mps 764 mmHg 84%
    01:00 +9°C° 0 mm 5 mps 764 mmHg 83%
    02:00 +9°C° 0 mm 5 mps 764 mmHg 82%
    03:00 +9°C° 0 mm 5 mps 763 mmHg 81%
    04:00 +9°C° 0 mm 5 mps 763 mmHg 81%
    05:00 +9°C° 0 mm 5 mps 763 mmHg 80%
    06:00 +9°C° 0 mm 5 mps 763 mmHg 80%
    07:00 +9°C° 0 mm 5 mps 763 mmHg 79%
    08:00 +10°C° 0 mm 6 mps 763 mmHg 78%
    09:00 +10°C° 0 mm 6 mps 763 mmHg 77%
    10:00 +11°C° 0 mm 6 mps 763 mmHg 76%
    11:00 +11°C° 0.2 mm 6 mps 763 mmHg 78%
    12:00 +11°C° 0.2 mm 6 mps 763 mmHg 79%
    13:00 +11°C° 0.2 mm 6 mps 762 mmHg 81%
    14:00 +12°C° 0.3 mm 5 mps 762 mmHg 82%
    15:00 +12°C° 0.3 mm 5 mps 762 mmHg 84%
    16:00 +10°C° 0.3 mm 5 mps 762 mmHg 85%
    17:00 +10°C° 0.2 mm 5 mps 762 mmHg 85%
    18:00 +10°C° 0.2 mm 5 mps 762 mmHg 84%
    19:00 +10°C° 0.2 mm 5 mps 762 mmHg 84%
    20:00 +10°C° 0.2 mm 5 mps 762 mmHg 83%
    21:00 +10°C° 0.2 mm 5 mps 762 mmHg 82%
    22:00 +10°C° 0.2 mm 6 mps 762 mmHg 82%
    23:00 +10°C° 0.2 mm 6 mps 762 mmHg 82%

    20 January, Sunday

    Time Temperature Precipitation Wind Pressure Humidity
    00:00 +10°C° 0.2 mm 6 mps 762 mmHg 82%
    01:00 +10°C° 0.2 mm 6 mps 762 mmHg 83%
    02:00 +9°C° 0.2 mm 6 mps 761 mmHg 84%
    03:00 +9°C° 0.2 mm 6 mps 761 mmHg 85%
    04:00 +9°C° 0.2 mm 6 mps 761 mmHg 85%
    05:00 +9°C° 0.2 mm 6 mps 761 mmHg 86%
    06:00 +9°C° 0.2 mm 6 mps 761 mmHg 86%
    07:00 +9°C° 0.2 mm 6 mps 761 mmHg 86%
    08:00 +10°C° 0.1 mm 6 mps 762 mmHg 84%
    09:00 +11°C° 0.1 mm 6 mps 762 mmHg 82%
    10:00 +11°C° 0.1 mm 6 mps 762 mmHg 80%
    11:00 +11°C° 0.1 mm 6 mps 762 mmHg 80%
    12:00 +13°C° 0.1 mm 6 mps 761 mmHg 79%
    13:00 +13°C° 0.1 mm 6 mps 761 mmHg 79%
    14:00 +13°C° 0.2 mm 5 mps 761 mmHg 80%
    15:00 +13°C° 0.2 mm 4 mps 761 mmHg 81%
    16:00 +12°C° 0.2 mm 4 mps 761 mmHg 82%
    17:00 +12°C° 0.4 mm 3 mps 761 mmHg 84%
    18:00 +11°C° 0.4 mm 3 mps 762 mmHg 85%
    19:00 +11°C° 0.4 mm 3 mps 762 mmHg 86%
    20:00 +11°C° 0.2 mm 3 mps 762 mmHg 85%
    21:00 +10°C° 0.2 mm 3 mps 763 mmHg 85%
    22:00 +10°C° 0.2 mm 3 mps 763 mmHg 84%
    23:00 +10°C° 0.1 mm 3 mps 763 mmHg 84%

    21 January, Monday

    Time Temperature Precipitation Wind Pressure Humidity
    00:00 +10°C° 0.1 mm 3 mps 763 mmHg 83%
    01:00 +10°C° 0.1 mm 4 mps 763 mmHg 83%
    02:00 +10°C° 0 mm 4 mps 763 mmHg 82%
    03:00 +10°C° 0 mm 4 mps 763 mmHg 82%
    04:00 +8°C° 0 mm 4 mps 763 mmHg 82%
    05:00 +8°C° 0 mm 4 mps 763 mmHg 82%
    06:00 +8°C° 0 mm 4 mps 763 mmHg 83%
    07:00 +8°C° 0 mm 4 mps 763 mmHg 83%
    08:00 +10°C° 0 mm 4 mps 764 mmHg 80%
    09:00 +11°C° 0 mm 4 mps 764 mmHg 78%
    10:00 +12°C° 0 mm 4 mps 764 mmHg 75%
    11:00 +13°C° 0.1 mm 4 mps 764 mmHg 74%
    12:00 +13°C° 0.1 mm 5 mps 763 mmHg 72%
    13:00 +14°C° 0.1 mm 5 mps 763 mmHg 70%
    14:00 +13°C° 0.3 mm 5 mps 763 mmHg 72%
    15:00 +13°C° 0.3 mm 5 mps 763 mmHg 75%
    16:00 +13°C° 0.3 mm 5 mps 763 mmHg 77%
    17:00 +11°C° 0.2 mm 6 mps 763 mmHg 77%
    18:00 +11°C° 0.2 mm 6 mps 763 mmHg 76%
    19:00 +11°C° 0.2 mm 6 mps 763 mmHg 76%
    20:00 +11°C° 0.2 mm 6 mps 764 mmHg 76%
    21:00 +11°C° 0.2 mm 6 mps 764 mmHg 76%
    22:00 +10°C° 0.2 mm 7 mps 764 mmHg 76%
    23:00 +10°C° 0.2 mm 7 mps 763 mmHg 76%
    Show more